Location: Columbia
(38.9520°N, 92.3340°W)
Time: 19:21:04
(UTC-05:00)

FENGYUN 3A - Visible Passes

Search period start: 28 June 2017 00:00
Search period end: 08 July 2017 00:00
Orbit: 820 x 832 km, 98.4° (Epoch: 19 June)

Date Brightness Start Highest point End Pass type
(mag) Time Alt. Az. Time Alt. Az. Time Alt. Az.
30 Jun 6.4 21:29:59 10° WSW 21:32:42 14° W 21:35:25 10° WNW visible
01 Jul 6.1 21:09:34 10° SW 21:13:35 21° W 21:17:39 10° NW visible
05 Jul 6.5 21:36:34 10° WSW 21:38:30 12° W 21:40:26 10° WNW visible
06 Jul 6.2 21:15:42 10° SW 21:19:22 18° W 21:23:04 10° NW visible
